Time,TemperatureF,DewpointF,PressureIn,WindDirection,WindDirectionDegrees,WindSpeedMPH,WindSpeedGustMPH,Humidity,HourlyPrecipIn,Conditions,Clouds,dailyrainin,SoftwareType,DateUTC
2013-04-23 00:01:00,23.4,7.5,29.99,SW,234,3.6,6.3,50,0.00,,---,0.00,VWS V14.01,2013-04-23 06:01:00,
2013-04-23 00:05:00,23.4,7.5,29.96,SW,217,5.8,7.2,50,0.00,,---,0.00,VWS V14.01,2013-04-23 06:05:00,
2013-04-23 00:10:00,23.2,7.3,29.96,SW,222,4.0,4.5,50,0.00,,---,0.00,VWS V14.01,2013-04-23 06:10:00,
2013-04-23 00:16:00,23.2,7.3,29.96,WSW,256,5.8,5.8,50,0.00,,---,0.00,VWS V14.01,2013-04-23 06:16:00,
2013-04-23 00:21:00,23.4,7.5,29.96,WSW,255,5.4,6.3,50,0.00,,---,0.00,VWS V14.01,2013-04-23 06:21:00,
2013-04-23 00:26:00,23.5,7.7,29.96,West,279,3.6,3.6,50,0.00,,---,0.00,VWS V14.01,2013-04-23 06:26:00,
2013-04-23 00:31:00,23.5,7.7,29.96,WSW,245,3.1,4.9,50,0.00,,---,0.00,VWS V14.01,2013-04-23 06:31:00,
2013-04-23 00:36:00,23.4,7.5,29.96,SW,228,6.3,6.3,50,0.00,,---,0.00,VWS V14.01,2013-04-23 06:36:00,
2013-04-23 00:41:00,23.4,7.5,29.96,WSW,256,5.4,8.3,50,0.00,,---,0.00,VWS V14.01,2013-04-23 06:41:00,
2013-04-23 00:46:00,23.5,7.7,29.96,West,259,5.8,7.6,50,0.00,,---,0.00,VWS V14.01,2013-04-23 06:46:00,
2013-04-23 00:50:00,23.5,7.7,29.96,SW,214,5.8,6.7,50,0.00,,---,0.00,VWS V14.01,2013-04-23 06:50:00,
2013-04-23 00:55:00,23.5,7.7,29.96,SW,224,3.6,5.4,50,0.00,,---,0.00,VWS V14.01,2013-04-23 06:55:00,
2013-04-23 01:00:00,23.5,7.7,29.96,West,264,4.0,5.4,50,0.00,,---,0.00,VWS V14.01,2013-04-23 07:00:00,
2013-04-23 01:05:00,23.4,7.5,29.96,WNW,286,6.3,6.3,50,0.00,,---,0.00,VWS V14.01,2013-04-23 07:05:00,
2013-04-23 01:10:00,23.0,7.6,29.96,WSW,250,5.4,8.1,51,0.00,,---,0.00,VWS V14.01,2013-04-23 07:10:00,
2013-04-23 01:15:00,23.0,8.0,29.96,SW,229,4.0,6.3,52,0.00,,---,0.00,VWS V14.01,2013-04-23 07:15:00,
2013-04-23 01:20:00,22.8,7.8,29.96,WSW,258,8.1,8.1,52,0.00,,---,0.00,VWS V14.01,2013-04-23 07:20:00,
2013-04-23 01:25:00,22.8,7.8,29.96,SW,229,8.3,8.3,52,0.00,,---,0.00,VWS V14.01,2013-04-23 07:25:00,
2013-04-23 01:30:00,22.8,7.8,29.96,WSW,238,7.6,8.1,52,0.00,,---,0.00,VWS V14.01,2013-04-23 07:30:00,
2013-04-23 01:35:00,22.8,7.8,29.96,WSW,258,5.8,6.3,52,0.00,,---,0.00,VWS V14.01,2013-04-23 07:35:00,
2013-04-23 01:40:00,22.6,7.7,29.96,West,276,4.9,6.3,52,0.00,,---,0.00,VWS V14.01,2013-04-23 07:40:00,
2013-04-23 01:45:00,22.3,7.3,29.96,WSW,237,6.3,6.3,52,0.00,,---,0.00,VWS V14.01,2013-04-23 07:45:00,
2013-04-23 01:50:00,22.3,7.3,29.96,WSW,240,4.0,5.8,52,0.00,,---,0.00,VWS V14.01,2013-04-23 07:50:00,
2013-04-23 01:55:00,22.1,7.6,29.96,WSW,244,6.3,7.2,53,0.00,,---,0.00,VWS V14.01,2013-04-23 07:55:00,
2013-04-23 02:00:00,21.9,7.0,29.96,SSW,204,6.7,10.1,52,0.00,,---,0.00,VWS V14.01,2013-04-23 08:00:00,
2013-04-23 02:05:00,21.7,7.3,29.96,SW,229,5.4,10.5,53,0.00,,---,0.00,VWS V14.01,2013-04-23 08:05:00,
2013-04-23 02:10:00,21.6,7.1,29.96,SW,220,9.6,9.6,53,0.00,,---,0.00,VWS V14.01,2013-04-23 08:10:00,
2013-04-23 02:15:00,21.7,7.3,29.96,WSW,258,6.3,6.3,53,0.00,,---,0.00,VWS V14.01,2013-04-23 08:15:00,
2013-04-23 02:20:00,21.7,7.3,29.93,WSW,237,6.3,6.3,53,0.00,,---,0.00,VWS V14.01,2013-04-23 08:20:00,
2013-04-23 02:25:00,21.9,7.4,29.93,SW,223,5.8,7.6,53,0.00,,---,0.00,VWS V14.01,2013-04-23 08:25:00,
2013-04-23 02:30:00,22.1,7.6,29.93,SW,232,3.1,5.8,53,0.00,,---,0.00,VWS V14.01,2013-04-23 08:30:00,
2013-04-23 02:35:00,22.3,7.8,29.96,SSW,213,8.3,8.3,53,0.00,,---,0.00,VWS V14.01,2013-04-23 08:35:00,
2013-04-23 02:40:00,22.3,7.8,29.96,SSW,211,4.0,7.6,53,0.00,,---,0.00,VWS V14.01,2013-04-23 08:40:00,
2013-04-23 02:45:00,22.3,7.3,29.96,SW,235,5.4,6.3,52,0.00,,---,0.00,VWS V14.01,2013-04-23 08:45:00,
2013-04-23 02:50:00,22.3,7.3,29.96,SW,228,4.9,6.3,52,0.00,,---,0.00,VWS V14.01,2013-04-23 08:50:00,
2013-04-23 02:55:00,22.3,7.3,29.96,West,272,6.3,6.3,52,0.00,,---,0.00,VWS V14.01,2013-04-23 08:55:00,
2013-04-23 03:00:00,21.9,7.0,29.96,SW,233,6.3,8.1,52,0.00,,---,0.00,VWS V14.01,2013-04-23 09:00:00,
2013-04-23 03:05:00,21.7,7.3,29.93,WSW,244,8.3,10.5,53,0.00,,---,0.00,VWS V14.01,2013-04-23 09:05:00,
2013-04-23 03:10:00,21.4,6.9,29.93,WSW,247,9.6,11.4,53,0.00,,---,0.00,VWS V14.01,2013-04-23 09:10:00,
2013-04-23 03:15:00,21.2,7.2,29.93,WNW,283,10.1,10.1,54,0.00,,---,0.00,VWS V14.01,2013-04-23 09:15:00,
2013-04-23 03:20:00,21.6,7.1,29.93,West,261,10.5,10.5,53,0.00,,---,0.00,VWS V14.01,2013-04-23 09:20:00,
2013-04-23 03:25:00,21.7,7.3,29.93,West,275,5.8,8.1,53,0.00,,---,0.00,VWS V14.01,2013-04-23 09:25:00,
2013-04-23 03:30:00,21.9,7.4,29.93,West,279,9.6,9.6,53,0.00,,---,0.00,VWS V14.01,2013-04-23 09:30:00,
2013-04-23 03:35:00,21.9,7.0,29.93,SW,232,7.6,7.6,52,0.00,,---,0.00,VWS V14.01,2013-04-23 09:35:00,
2013-04-23 03:40:00,21.7,6.8,29.93,West,268,7.6,8.7,52,0.00,,---,0.00,VWS V14.01,2013-04-23 09:40:00,
2013-04-23 03:45:00,21.6,6.7,29.93,West,270,8.1,8.1,52,0.00,,---,0.00,VWS V14.01,2013-04-23 09:45:00,
2013-04-23 03:50:00,21.6,6.7,29.93,West,272,5.4,5.4,52,0.00,,---,0.00,VWS V14.01,2013-04-23 09:50:00,
2013-04-23 03:55:00,21.4,6.5,29.93,SW,235,7.6,7.6,52,0.00,,---,0.00,VWS V14.01,2013-04-23 09:55:00,
2013-04-23 04:00:00,21.4,6.9,29.93,West,265,7.2,7.2,53,0.00,,---,0.00,VWS V14.01,2013-04-23 10:00:00,
2013-04-23 04:05:00,21.6,7.1,29.93,West,280,8.3,8.3,53,0.00,,---,0.00,VWS V14.01,2013-04-23 10:05:00,
2013-04-23 04:10:00,21.6,7.1,29.93,WSW,256,8.1,8.7,53,0.00,,---,0.00,VWS V14.01,2013-04-23 10:10:00,
2013-04-23 04:15:00,21.6,6.7,29.93,West,270,8.7,8.7,52,0.00,,---,0.00,VWS V14.01,2013-04-23 10:15:00,
2013-04-23 04:20:00,21.7,6.8,29.93,West,274,5.4,8.1,52,0.00,,---,0.00,VWS V14.01,2013-04-23 10:20:00,
2013-04-23 04:25:00,21.7,6.8,29.93,WNW,285,5.4,8.1,52,0.00,,---,0.00,VWS V14.01,2013-04-23 10:25:00,
2013-04-23 04:30:00,21.7,6.8,29.93,WNW,283,8.3,8.3,52,0.00,,---,0.00,VWS V14.01,2013-04-23 10:30:00,
2013-04-23 04:35:00,21.7,6.4,29.93,WNW,286,8.1,9.6,51,0.00,,---,0.00,VWS V14.01,2013-04-23 10:35:00,
2013-04-23 04:40:00,21.9,6.6,29.93,West,259,10.5,10.5,51,0.00,,---,0.00,VWS V14.01,2013-04-23 10:40:00,
2013-04-23 04:45:00,21.7,6.4,29.93,West,261,6.3,10.5,51,0.00,,---,0.00,VWS V14.01,2013-04-23 10:45:00,
2013-04-23 04:50:00,21.7,6.4,29.91,WSW,256,8.7,8.7,51,0.00,,---,0.00,VWS V14.01,2013-04-23 10:50:00,
2013-04-23 04:55:00,21.6,6.2,29.91,SW,234,9.2,9.2,51,0.00,,---,0.00,VWS V14.01,2013-04-23 10:55:00,
2013-04-23 05:00:00,21.0,5.7,29.91,West,264,5.8,7.6,51,0.00,,---,0.00,VWS V14.01,2013-04-23 11:00:00,
2013-04-23 05:05:00,20.8,6.0,29.93,West,269,5.8,8.1,52,0.00,,---,0.00,VWS V14.01,2013-04-23 11:05:00,
2013-04-23 05:10:00,20.8,6.4,29.93,West,265,6.3,12.8,53,0.00,,---,0.00,VWS V14.01,2013-04-23 11:10:00,
2013-04-23 05:15:00,20.8,6.4,29.93,WSW,245,7.6,8.1,53,0.00,,---,0.00,VWS V14.01,2013-04-23 11:15:00,
2013-04-23 05:20:00,20.8,6.4,29.93,WSW,241,7.6,7.6,53,0.00,,---,0.00,VWS V14.01,2013-04-23 11:20:00,
2013-04-23 05:25:00,20.8,6.4,29.93,WSW,243,5.8,11.0,53,0.00,,---,0.00,VWS V14.01,2013-04-23 11:25:00,
2013-04-23 05:30:00,21.0,6.6,29.93,West,270,8.1,8.3,53,0.00,,---,0.00,VWS V14.01,2013-04-23 11:30:00,
2013-04-23 05:35:00,21.2,6.3,29.91,SW,227,5.4,7.6,52,0.00,,---,0.00,VWS V14.01,2013-04-23 11:35:00,
2013-04-23 05:40:00,21.2,5.9,29.91,West,264,8.1,8.1,51,0.00,,---,0.00,VWS V14.01,2013-04-23 11:40:00,
2013-04-23 05:45:00,21.6,5.8,29.91,SSW,211,6.3,6.3,50,0.00,,---,0.00,VWS V14.01,2013-04-23 11:45:00,
2013-04-23 05:50:00,21.6,5.8,29.93,WSW,243,6.3,6.3,50,0.00,,---,0.00,VWS V14.01,2013-04-23 11:50:00,
2013-04-23 05:55:00,21.6,5.8,29.93,SW,231,5.8,8.3,50,0.00,,---,0.00,VWS V14.01,2013-04-23 11:55:00,
2013-04-23 06:00:00,21.4,5.6,29.93,WSW,244,4.9,5.4,50,0.00,,---,0.00,VWS V14.01,2013-04-23 12:00:00,
2013-04-23 06:05:00,21.2,5.5,29.93,WSW,252,5.4,8.1,50,0.00,,---,0.00,VWS V14.01,2013-04-23 12:05:00,
2013-04-23 06:10:00,21.0,5.3,29.93,SSW,200,7.6,10.5,50,0.00,,---,0.00,VWS V14.01,2013-04-23 12:10:00,
2013-04-23 06:15:00,20.7,5.0,29.93,SW,220,6.3,6.3,50,0.00,,---,0.00,VWS V14.01,2013-04-23 12:15:00,
2013-04-23 06:20:00,20.5,5.2,29.93,SSW,193,5.4,5.8,51,0.00,,---,0.00,VWS V14.01,2013-04-23 12:20:00,
2013-04-23 06:25:00,20.3,5.1,29.93,SW,216,5.8,7.2,51,0.00,,---,0.00,VWS V14.01,2013-04-23 12:25:00,
2013-04-23 06:30:00,20.3,5.5,29.93,SW,224,3.1,3.1,52,0.00,,---,0.00,VWS V14.01,2013-04-23 12:30:00,
2013-04-23 06:35:00,20.3,5.5,29.93,SW,214,4.0,5.4,52,0.00,,---,0.00,VWS V14.01,2013-04-23 12:35:00,
2013-04-23 06:40:00,20.1,5.3,29.93,WSW,239,5.8,5.8,52,0.00,,---,0.00,VWS V14.01,2013-04-23 12:40:00,
2013-04-23 06:45:00,20.1,5.7,29.93,WSW,241,8.1,8.1,53,0.00,,---,0.00,VWS V14.01,2013-04-23 12:45:00,
2013-04-23 06:50:00,20.3,5.5,29.91,SW,226,2.7,4.0,52,0.00,,---,0.00,VWS V14.01,2013-04-23 12:50:00,
2013-04-23 06:55:00,20.3,5.5,29.91,SW,229,4.0,4.0,52,0.00,,---,0.00,VWS V14.01,2013-04-23 12:55:00,
2013-04-23 07:00:00,20.5,5.2,29.91,SSW,212,3.6,3.6,51,0.00,,---,0.00,VWS V14.01,2013-04-23 13:00:00,
2013-04-23 07:05:00,20.5,5.2,29.91,South,189,5.8,5.8,51,0.00,,---,0.00,VWS V14.01,2013-04-23 13:05:00,
2013-04-23 07:10:00,20.7,5.0,29.93,SSW,206,6.3,6.3,50,0.00,,---,0.00,VWS V14.01,2013-04-23 13:10:00,
2013-04-23 07:15:00,21.2,5.5,29.93,West,275,4.9,6.3,50,0.00,,---,0.00,VWS V14.01,2013-04-23 13:15:00,
2013-04-23 07:20:00,21.6,5.8,29.91,SW,234,5.8,8.1,50,0.00,,---,0.00,VWS V14.01,2013-04-23 13:20:00,
2013-04-23 07:25:00,21.9,5.7,29.91,SW,230,4.0,5.8,49,0.00,,---,0.00,VWS V14.01,2013-04-23 13:25:00,
2013-04-23 07:30:00,22.6,5.9,29.91,WNW,297,3.6,5.4,48,0.00,,---,0.00,VWS V14.01,2013-04-23 13:30:00,
2013-04-23 07:35:00,23.4,6.1,29.91,SW,215,5.8,5.8,47,0.00,,---,0.00,VWS V14.01,2013-04-23 13:35:00,
2013-04-23 07:40:00,24.1,6.3,29.91,SW,223,4.0,5.4,46,0.00,,---,0.00,VWS V14.01,2013-04-23 13:40:00,
2013-04-23 07:45:00,24.6,6.3,29.91,South,187,3.6,3.6,45,0.00,,---,0.00,VWS V14.01,2013-04-23 13:45:00,
2013-04-23 07:50:00,25.2,6.3,29.91,West,267,5.8,8.1,44,0.00,,---,0.00,VWS V14.01,2013-04-23 13:50:00,
2013-04-23 07:55:00,25.3,6.0,29.91,South,186,9.6,11.0,43,0.00,,---,0.00,VWS V14.01,2013-04-23 13:55:00,
2013-04-23 08:00:00,25.3,6.0,29.91,SW,236,10.1,10.1,43,0.00,,---,0.00,VWS V14.01,2013-04-23 14:00:00,
2013-04-23 08:05:00,25.7,6.3,29.91,WSW,251,5.4,5.8,43,0.00,,---,0.00,VWS V14.01,2013-04-23 14:05:00,
2013-04-23 08:10:00,26.1,6.6,29.91,SW,219,6.3,6.3,43,0.00,,---,0.00,VWS V14.01,2013-04-23 14:10:00,
2013-04-23 08:15:00,26.4,7.0,29.91,SW,235,8.7,8.7,43,0.00,,---,0.00,VWS V14.01,2013-04-23 14:15:00,
2013-04-23 08:20:00,26.8,6.8,29.91,WSW,257,4.9,5.4,42,0.00,,---,0.00,VWS V14.01,2013-04-23 14:20:00,
2013-04-23 08:25:00,27.1,7.1,29.91,SW,236,5.8,8.1,42,0.00,,---,0.00,VWS V14.01,2013-04-23 14:25:00,
2013-04-23 08:30:00,27.9,7.8,29.91,West,267,7.6,8.7,42,0.00,,---,0.00,VWS V14.01,2013-04-23 14:30:00,
2013-04-23 08:35:00,28.2,8.1,29.91,WSW,253,6.3,6.3,42,0.00,,---,0.00,VWS V14.01,2013-04-23 14:35:00,
2013-04-23 08:40:00,28.8,8.0,29.93,SSW,205,4.9,5.8,41,0.00,,---,0.00,VWS V14.01,2013-04-23 14:40:00,
2013-04-23 08:45:00,29.5,8.7,29.93,SW,226,4.9,4.9,41,0.00,,---,0.00,VWS V14.01,2013-04-23 14:45:00,
2013-04-23 08:50:00,29.8,9.0,29.93,SSW,209,0.0,5.4,41,0.00,,---,0.00,VWS V14.01,2013-04-23 14:50:00,
2013-04-23 08:55:00,30.2,9.4,29.93,North,357,2.2,2.2,41,0.00,,---,0.00,VWS V14.01,2013-04-23 14:55:00,
2013-04-23 09:00:00,30.4,9.5,29.93,NE,52,2.2,2.7,41,0.00,,---,0.00,VWS V14.01,2013-04-23 15:00:00,
2013-04-23 09:05:00,30.6,10.2,29.93,NE,53,4.9,4.9,42,0.00,,---,0.00,VWS V14.01,2013-04-23 15:05:00,
2013-04-23 09:10:00,30.9,10.5,29.93,NE,48,2.2,3.1,42,0.00,,---,0.00,VWS V14.01,2013-04-23 15:10:00,
2013-04-23 09:15:00,31.5,11.0,29.93,NE,43,3.6,4.0,42,0.00,,---,0.00,VWS V14.01,2013-04-23 15:15:00,
2013-04-23 09:20:00,32.0,11.0,29.93,NW,325,7.6,8.3,41,0.00,,---,0.00,VWS V14.01,2013-04-23 15:20:00,
2013-04-23 09:25:00,32.7,11.1,29.91,West,276,3.6,3.6,40,0.00,,---,0.00,VWS V14.01,2013-04-23 15:25:00,
2013-04-23 09:30:00,33.1,10.8,29.91,West,280,3.6,5.4,39,0.00,,---,0.00,VWS V14.01,2013-04-23 15:30:00,
2013-04-23 09:35:00,33.4,10.6,29.91,WNW,299,4.0,8.1,38,0.00,,---,0.00,VWS V14.01,2013-04-23 15:35:00,
2013-04-23 09:40:00,33.6,10.7,29.91,WNW,299,8.1,8.1,38,0.00,,---,0.00,VWS V14.01,2013-04-23 15:40:00,
2013-04-23 09:45:00,33.8,10.9,29.91,NW,309,2.2,2.2,38,0.00,,---,0.00,VWS V14.01,2013-04-23 15:45:00,
2013-04-23 09:50:00,34.0,10.5,29.91,West,260,8.3,8.3,37,0.00,,---,0.00,VWS V14.01,2013-04-23 15:50:00,
2013-04-23 09:55:00,34.3,10.8,29.91,WNW,293,8.7,8.7,37,0.00,,---,0.00,VWS V14.01,2013-04-23 15:55:00,
2013-04-23 10:00:00,34.3,10.2,29.91,NW,304,5.4,7.6,36,0.00,,---,0.00,VWS V14.01,2013-04-23 16:00:00,
2013-04-23 10:05:00,34.5,10.3,29.91,West,269,6.3,10.1,36,0.00,,---,0.00,VWS V14.01,2013-04-23 16:05:00,
2013-04-23 10:10:00,34.7,10.5,29.91,WNW,300,7.6,8.7,36,0.00,,---,0.00,VWS V14.01,2013-04-23 16:10:00,
2013-04-23 10:15:00,34.5,9.7,29.91,NW,310,8.7,8.7,35,0.00,,---,0.00,VWS V14.01,2013-04-23 16:15:00,
2013-04-23 10:20:00,35.1,10.8,29.91,West,263,8.3,8.7,36,0.00,,---,0.00,VWS V14.01,2013-04-23 16:20:00,
2013-04-23 10:25:00,35.1,10.2,29.91,West,281,7.6,7.6,35,0.00,,---,0.00,VWS V14.01,2013-04-23 16:25:00,
2013-04-23 10:30:00,35.6,10.7,29.91,WNW,295,5.8,5.8,35,0.00,,---,0.00,VWS V14.01,2013-04-23 16:30:00,
2013-04-23 10:35:00,35.6,10.0,29.91,NW,308,10.1,10.1,34,0.00,,---,0.00,VWS V14.01,2013-04-23 16:35:00,
2013-04-23 10:40:00,35.6,10.0,29.91,West,270,10.5,10.5,34,0.00,,---,0.00,VWS V14.01,2013-04-23 16:40:00,
2013-04-23 10:45:00,35.6,10.0,29.91,West,261,5.8,8.3,34,0.00,,---,0.00,VWS V14.01,2013-04-23 16:45:00,
2013-04-23 10:50:00,35.8,10.2,29.91,NW,304,3.6,7.6,34,0.00,,---,0.00,VWS V14.01,2013-04-23 16:50:00,
2013-04-23 10:55:00,36.0,10.3,29.88,West,278,4.9,4.9,34,0.00,,---,0.00,VWS V14.01,2013-04-23 16:55:00,
2013-04-23 11:00:00,36.3,10.6,29.88,West,264,7.6,7.6,34,0.00,,---,0.00,VWS V14.01,2013-04-23 17:00:00,
2013-04-23 11:05:00,36.7,11.0,29.88,WNW,287,5.8,5.8,34,0.00,,---,0.00,VWS V14.01,2013-04-23 17:05:00,
2013-04-23 11:10:00,37.0,10.6,29.88,NW,320,4.0,6.7,33,0.00,,---,0.00,VWS V14.01,2013-04-23 17:10:00,
2013-04-23 11:15:00,37.4,10.9,29.88,WNW,288,8.1,10.5,33,0.00,,---,0.00,VWS V14.01,2013-04-23 17:15:00,
2013-04-23 11:20:00,37.4,10.2,29.88,WSW,238,8.3,8.3,32,0.00,,---,0.00,VWS V14.01,2013-04-23 17:20:00,
2013-04-23 11:25:00,37.6,10.4,29.88,WNW,293,8.3,9.6,32,0.00,,---,0.00,VWS V14.01,2013-04-23 17:25:00,
2013-04-23 11:30:00,37.6,10.4,29.88,West,280,11.0,15.4,32,0.00,,---,0.00,VWS V14.01,2013-04-23 17:30:00,
2013-04-23 11:35:00,37.8,10.6,29.88,SW,233,7.6,10.1,32,0.00,,---,0.00,VWS V14.01,2013-04-23 17:35:00,
2013-04-23 11:40:00,37.8,9.9,29.88,NW,304,8.3,10.5,31,0.00,,---,0.00,VWS V14.01,2013-04-23 17:40:00,
2013-04-23 11:45:00,37.9,10.7,29.88,WNW,302,8.1,8.1,32,0.00,,---,0.00,VWS V14.01,2013-04-23 17:45:00,
2013-04-23 11:50:00,38.1,10.9,29.88,NW,318,8.3,8.3,32,0.00,,---,0.00,VWS V14.01,2013-04-23 17:50:00,
2013-04-23 11:55:00,38.1,10.9,29.88,WNW,299,6.3,7.6,32,0.00,,---,0.00,VWS V14.01,2013-04-23 17:55:00,
2013-04-23 12:00:00,38.7,10.6,29.88,WNW,287,8.3,15.0,31,0.00,,---,0.00,VWS V14.01,2013-04-23 18:00:00,
2013-04-23 12:05:00,38.7,11.4,29.88,SW,214,3.1,6.7,32,0.00,,---,0.00,VWS V14.01,2013-04-23 18:05:00,
2013-04-23 12:10:00,38.8,10.8,29.88,WNW,301,9.6,10.5,31,0.00,,---,0.00,VWS V14.01,2013-04-23 18:10:00,
2013-04-23 12:15:00,38.8,10.8,29.88,West,262,8.7,12.8,31,0.00,,---,0.00,VWS V14.01,2013-04-23 18:15:00,
2013-04-23 12:20:00,38.7,10.6,29.88,WSW,257,9.6,11.4,31,0.00,,---,0.00,VWS V14.01,2013-04-23 18:20:00,
2013-04-23 12:25:00,39.2,11.1,29.88,WNW,287,8.3,11.0,31,0.00,,---,0.00,VWS V14.01,2013-04-23 18:25:00,
2013-04-23 12:30:00,39.4,11.3,29.88,West,264,8.3,8.7,31,0.00,,---,0.00,VWS V14.01,2013-04-23 18:30:00,
2013-04-23 12:35:00,39.4,10.5,29.88,WNW,292,8.1,10.5,30,0.00,,---,0.00,VWS V14.01,2013-04-23 18:35:00,
2013-04-23 12:40:00,39.0,11.0,29.88,NW,314,4.0,5.4,31,0.00,,---,0.00,VWS V14.01,2013-04-23 18:40:00,
2013-04-23 12:45:00,39.2,11.1,29.88,West,265,8.1,12.8,31,0.00,,---,0.00,VWS V14.01,2013-04-23 18:45:00,
2013-04-23 12:50:00,39.2,10.4,29.88,SSW,197,8.1,8.3,30,0.00,,---,0.00,VWS V14.01,2013-04-23 18:50:00,
2013-04-23 12:55:00,39.6,10.7,29.85,West,275,5.8,10.1,30,0.00,,---,0.00,VWS V14.01,2013-04-23 18:55:00,
2013-04-23 13:00:00,39.7,10.9,29.85,NW,315,4.5,5.8,30,0.00,,---,0.00,VWS V14.01,2013-04-23 19:00:00,
2013-04-23 13:05:00,39.4,10.5,29.85,SW,235,5.8,7.2,30,0.00,,---,0.00,VWS V14.01,2013-04-23 19:05:00,
2013-04-23 13:09:00,39.4,10.5,29.88,West,265,7.2,10.5,30,0.00,,---,0.00,VWS V14.01,2013-04-23 19:09:00,
2013-04-23 13:14:00,39.4,10.5,29.88,West,270,3.1,5.4,30,0.00,,---,0.00,VWS V14.01,2013-04-23 19:14:00,
2013-04-23 13:19:00,40.3,11.3,29.88,WNW,299,4.0,4.9,30,0.00,,---,0.00,VWS V14.01,2013-04-23 19:19:00,
2013-04-23 13:24:00,40.3,11.3,29.88,WNW,299,6.3,6.3,30,0.00,,---,0.00,VWS V14.01,2013-04-23 19:24:00,
2013-04-23 13:29:00,40.5,11.5,29.88,NW,307,2.7,6.3,30,0.00,,---,0.00,VWS V14.01,2013-04-23 19:29:00,
2013-04-23 13:34:00,40.6,11.6,29.88,NW,318,8.7,8.7,30,0.00,,---,0.00,VWS V14.01,2013-04-23 19:34:00,
2013-04-23 13:39:00,40.3,11.3,29.88,West,280,7.6,7.6,30,0.00,,---,0.00,VWS V14.01,2013-04-23 19:39:00,
2013-04-23 13:44:00,40.3,11.3,29.88,NW,326,5.4,8.3,30,0.00,,---,0.00,VWS V14.01,2013-04-23 19:44:00,
2013-04-23 13:49:00,40.3,11.3,29.88,NNW,336,8.3,8.3,30,0.00,,---,0.00,VWS V14.01,2013-04-23 19:49:00,
2013-04-23 13:54:00,40.3,11.3,29.88,West,265,10.1,10.1,30,0.00,,---,0.00,VWS V14.01,2013-04-23 19:54:00,
2013-04-23 13:59:00,40.3,11.3,29.88,West,275,8.3,8.3,30,0.00,,---,0.00,VWS V14.01,2013-04-23 19:59:00,
2013-04-23 14:04:00,40.3,11.3,29.88,West,278,8.3,8.3,30,0.00,,---,0.00,VWS V14.01,2013-04-23 20:04:00,
2013-04-23 14:09:00,40.5,11.5,29.85,WSW,242,7.6,8.7,30,0.00,,---,0.00,VWS V14.01,2013-04-23 20:09:00,
2013-04-23 14:14:00,40.5,11.5,29.85,West,268,5.8,6.3,30,0.00,,---,0.00,VWS V14.01,2013-04-23 20:14:00,
2013-04-23 14:19:00,40.5,10.7,29.85,NW,316,7.6,11.0,29,0.00,,---,0.00,VWS V14.01,2013-04-23 20:19:00,
2013-04-23 14:24:00,40.5,10.7,29.85,WNW,292,10.5,10.5,29,0.00,,---,0.00,VWS V14.01,2013-04-23 20:24:00,
2013-04-23 14:29:00,40.5,11.5,29.85,NNW,328,5.8,8.7,30,0.00,,---,0.00,VWS V14.01,2013-04-23 20:29:00,
2013-04-23 14:34:00,40.6,10.9,29.85,NW,326,4.0,4.9,29,0.00,,---,0.00,VWS V14.01,2013-04-23 20:34:00,
2013-04-23 14:39:00,41.0,11.2,29.85,NW,310,6.3,6.3,29,0.00,,---,0.00,VWS V14.01,2013-04-23 20:39:00,
2013-04-23 14:44:00,41.4,11.5,29.85,West,271,8.3,8.7,29,0.00,,---,0.00,VWS V14.01,2013-04-23 20:44:00,
2013-04-23 14:49:00,41.2,11.4,29.85,WSW,252,8.7,8.7,29,0.00,,---,0.00,VWS V14.01,2013-04-23 20:49:00,
2013-04-23 14:54:00,41.2,11.4,29.85,West,266,8.7,8.7,29,0.00,,---,0.00,VWS V14.01,2013-04-23 20:54:00,
2013-04-23 14:59:00,41.4,11.5,29.85,WNW,285,3.1,4.9,29,0.00,,---,0.00,VWS V14.01,2013-04-23 20:59:00,
2013-04-23 15:04:00,41.4,11.5,29.85,NW,316,4.9,8.1,29,0.00,,---,0.00,VWS V14.01,2013-04-23 21:04:00,
2013-04-23 15:09:00,41.5,11.7,29.88,NW,305,8.1,8.3,29,0.00,,---,0.00,VWS V14.01,2013-04-23 21:09:00,
2013-04-23 15:14:00,41.5,11.7,29.88,West,274,11.0,11.0,29,0.00,,---,0.00,VWS V14.01,2013-04-23 21:14:00,
2013-04-23 15:19:00,41.0,11.2,29.88,West,267,3.6,6.3,29,0.00,,---,0.00,VWS V14.01,2013-04-23 21:19:00,
2013-04-23 15:24:00,41.0,11.2,29.85,West,277,11.0,11.0,29,0.00,,---,0.00,VWS V14.01,2013-04-23 21:24:00,
2013-04-23 15:29:00,40.8,11.8,29.85,WNW,298,6.3,6.3,30,0.00,,---,0.00,VWS V14.01,2013-04-23 21:29:00,
2013-04-23 15:34:00,40.6,10.9,29.85,West,281,4.9,12.3,29,0.00,,---,0.00,VWS V14.01,2013-04-23 21:34:00,
2013-04-23 15:39:00,40.8,11.8,29.88,WSW,240,3.6,8.1,30,0.00,,---,0.00,VWS V14.01,2013-04-23 21:39:00,
2013-04-23 15:44:00,40.6,11.6,29.88,SW,236,5.4,6.3,30,0.00,,---,0.00,VWS V14.01,2013-04-23 21:44:00,
2013-04-23 15:49:00,40.8,11.8,29.88,WNW,289,8.3,11.0,30,0.00,,---,0.00,VWS V14.01,2013-04-23 21:49:00,
2013-04-23 15:54:00,40.5,11.5,29.85,WNW,291,11.0,11.0,30,0.00,,---,0.00,VWS V14.01,2013-04-23 21:54:00,
2013-04-23 15:59:00,40.5,11.5,29.85,WNW,286,10.1,10.1,30,0.00,,---,0.00,VWS V14.01,2013-04-23 21:59:00,
2013-04-23 16:04:00,40.3,11.3,29.85,NW,305,3.1,6.3,30,0.00,,---,0.00,VWS V14.01,2013-04-23 22:04:00,
2013-04-23 16:09:00,40.5,11.5,29.85,NW,320,5.4,8.1,30,0.00,,---,0.00,VWS V14.01,2013-04-23 22:09:00,
2013-04-23 16:14:00,40.8,11.8,29.85,SW,214,5.4,6.3,30,0.00,,---,0.00,VWS V14.01,2013-04-23 22:14:00,
2013-04-23 16:19:00,41.2,11.4,29.85,West,267,3.6,8.3,29,0.00,,---,0.00,VWS V14.01,2013-04-23 22:19:00,
2013-04-23 16:24:00,41.0,11.2,29.85,WNW,295,15.4,15.4,29,0.00,,---,0.00,VWS V14.01,2013-04-23 22:24:00,
2013-04-23 16:29:00,40.5,11.5,29.85,NW,316,6.3,8.7,30,0.00,,---,0.00,VWS V14.01,2013-04-23 22:29:00,
2013-04-23 16:34:00,40.8,11.8,29.85,West,265,4.9,7.2,30,0.00,,---,0.00,VWS V14.01,2013-04-23 22:34:00,
2013-04-23 16:39:00,40.6,11.6,29.85,WNW,300,8.7,11.0,30,0.00,,---,0.00,VWS V14.01,2013-04-23 22:39:00,
2013-04-23 16:44:00,40.6,11.6,29.85,West,273,8.1,8.7,30,0.00,,---,0.00,VWS V14.01,2013-04-23 22:44:00,
2013-04-23 16:49:00,40.8,12.5,29.85,NW,316,3.6,7.6,31,0.00,,---,0.00,VWS V14.01,2013-04-23 22:49:00,
2013-04-23 16:54:00,41.0,12.7,29.85,SW,217,8.7,10.1,31,0.00,,---,0.00,VWS V14.01,2013-04-23 22:54:00,
2013-04-23 16:59:00,41.0,12.7,29.85,WNW,294,5.4,8.3,31,0.00,,---,0.00,VWS V14.01,2013-04-23 22:59:00,
2013-04-23 17:04:00,40.6,12.4,29.85,WNW,290,7.6,7.6,31,0.00,,---,0.00,VWS V14.01,2013-04-23 23:04:00,
2013-04-23 17:09:00,40.5,12.2,29.85,WNW,301,3.6,9.2,31,0.00,,---,0.00,VWS V14.01,2013-04-23 23:09:00,
2013-04-23 17:14:00,40.5,12.2,29.85,SW,230,10.5,10.5,31,0.00,,---,0.00,VWS V14.01,2013-04-23 23:14:00,
2013-04-23 17:19:00,40.6,12.4,29.85,West,280,8.1,8.1,31,0.00,,---,0.00,VWS V14.01,2013-04-23 23:19:00,
2013-04-23 17:24:00,40.6,12.4,29.85,WSW,246,7.6,10.5,31,0.00,,---,0.00,VWS V14.01,2013-04-23 23:24:00,
2013-04-23 17:29:00,41.0,12.7,29.85,NW,310,7.6,7.6,31,0.00,,---,0.00,VWS V14.01,2013-04-23 23:29:00,
2013-04-23 17:34:00,40.6,12.4,29.85,West,266,5.8,8.1,31,0.00,,---,0.00,VWS V14.01,2013-04-23 23:34:00,
2013-04-23 17:39:00,41.0,12.7,29.85,West,267,5.8,6.3,31,0.00,,---,0.00,VWS V14.01,2013-04-23 23:39:00,
2013-04-23 17:44:00,40.6,12.4,29.85,WNW,298,4.0,4.0,31,0.00,,---,0.00,VWS V14.01,2013-04-23 23:44:00,
2013-04-23 17:49:00,40.8,12.5,29.85,NW,307,5.8,5.8,31,0.00,,---,0.00,VWS V14.01,2013-04-23 23:49:00,
2013-04-23 17:54:00,40.6,11.6,29.85,WNW,290,8.3,8.3,30,0.00,,---,0.00,VWS V14.01,2013-04-23 23:54:00,
2013-04-23 17:59:00,41.0,12.0,29.85,WNW,303,8.3,11.0,30,0.00,,---,0.00,VWS V14.01,2013-04-23 23:59:00,
2013-04-23 18:04:00,41.4,12.3,29.85,NNW,348,8.3,10.5,30,0.00,,---,0.00,VWS V14.01,2013-04-24 00:04:00,
2013-04-23 18:09:00,41.7,11.8,29.85,SSW,198,9.6,9.6,29,0.00,,---,0.00,VWS V14.01,2013-04-24 00:09:00,
2013-04-23 18:14:00,41.9,12.0,29.85,NW,305,8.3,8.3,29,0.00,,---,0.00,VWS V14.01,2013-04-24 00:14:00,
2013-04-23 18:19:00,41.7,12.6,29.85,NW,325,6.3,6.3,30,0.00,,---,0.00,VWS V14.01,2013-04-24 00:19:00,
2013-04-23 18:24:00,41.7,12.6,29.85,WSW,247,11.9,12.8,30,0.00,,---,0.00,VWS V14.01,2013-04-24 00:24:00,
2013-04-23 18:29:00,41.4,12.3,29.85,WSW,242,5.8,8.3,30,0.00,,---,0.00,VWS V14.01,2013-04-24 00:29:00,
2013-04-23 18:34:00,41.5,11.7,29.85,NW,324,7.6,7.6,29,0.00,,---,0.00,VWS V14.01,2013-04-24 00:34:00,
2013-04-23 18:39:00,41.4,12.3,29.85,NW,324,8.3,10.5,30,0.00,,---,0.00,VWS V14.01,2013-04-24 00:39:00,
2013-04-23 18:44:00,41.0,12.0,29.85,NW,314,8.3,12.3,30,0.00,,---,0.00,VWS V14.01,2013-04-24 00:44:00,
2013-04-23 18:49:00,40.8,11.8,29.85,West,278,8.1,8.7,30,0.00,,---,0.00,VWS V14.01,2013-04-24 00:49:00,
2013-04-23 18:54:00,40.8,11.8,29.85,WNW,303,6.3,6.3,30,0.00,,---,0.00,VWS V14.01,2013-04-24 00:54:00,
2013-04-23 18:59:00,40.5,11.5,29.85,SW,233,11.0,11.0,30,0.00,,---,0.00,VWS V14.01,2013-04-24 00:59:00,
2013-04-23 19:04:00,40.6,11.6,29.85,West,271,5.8,8.1,30,0.00,,---,0.00,VWS V14.01,2013-04-24 01:04:00,
2013-04-23 19:09:00,40.3,11.3,29.85,WSW,257,6.3,6.3,30,0.00,,---,0.00,VWS V14.01,2013-04-24 01:09:00,
2013-04-23 19:14:00,39.7,11.6,29.85,WNW,290,5.8,8.1,31,0.00,,---,0.00,VWS V14.01,2013-04-24 01:14:00,
2013-04-23 19:19:00,39.0,11.0,29.85,NW,323,3.1,5.4,31,0.00,,---,0.00,VWS V14.01,2013-04-24 01:19:00,
2013-04-23 19:24:00,38.7,11.4,29.85,WNW,290,2.2,3.6,32,0.00,,---,0.00,VWS V14.01,2013-04-24 01:24:00,
2013-04-23 19:29:00,38.3,11.7,29.85,NNW,346,5.4,8.1,33,0.00,,---,0.00,VWS V14.01,2013-04-24 01:29:00,
2013-04-23 19:34:00,37.8,11.9,29.85,WNW,303,6.3,6.3,34,0.00,,---,0.00,VWS V14.01,2013-04-24 01:34:00,
2013-04-23 19:39:00,37.6,13.1,29.85,WNW,295,2.7,5.4,36,0.00,,---,0.00,VWS V14.01,2013-04-24 01:39:00,
2013-04-23 19:44:00,37.4,14.1,29.85,NNW,333,4.0,6.3,38,0.00,,---,0.00,VWS V14.01,2013-04-24 01:44:00,
2013-04-23 19:49:00,37.2,14.6,29.85,NNW,338,4.0,5.4,39,0.00,,---,0.00,VWS V14.01,2013-04-24 01:49:00,
2013-04-23 19:54:00,37.0,15.0,29.85,NW,319,4.0,4.0,40,0.00,,---,0.00,VWS V14.01,2013-04-24 01:54:00,
2013-04-23 19:59:00,36.7,14.6,29.85,NW,322,5.8,8.7,40,0.00,,---,0.00,VWS V14.01,2013-04-24 01:59:00,
2013-04-23 20:04:00,36.3,14.9,29.85,WNW,292,4.0,5.4,41,0.00,,---,0.00,VWS V14.01,2013-04-24 02:04:00,
2013-04-23 20:09:00,36.1,14.7,29.88,WNW,286,4.0,5.4,41,0.00,,---,0.00,VWS V14.01,2013-04-24 02:09:00,
2013-04-23 20:14:00,36.3,14.9,29.88,WNW,299,3.6,3.6,41,0.00,,---,0.00,VWS V14.01,2013-04-24 02:14:00,
2013-04-23 20:20:00,36.7,15.2,29.88,WNW,296,3.1,4.0,41,0.00,,---,0.00,VWS V14.01,2013-04-24 02:20:00,
2013-04-23 20:25:00,36.7,14.6,29.85,NW,307,4.0,4.0,40,0.00,,---,0.00,VWS V14.01,2013-04-24 02:25:00,
2013-04-23 20:30:00,36.9,14.8,29.85,WNW,301,3.6,5.4,40,0.00,,---,0.00,VWS V14.01,2013-04-24 02:30:00,
2013-04-23 20:35:00,36.5,14.5,29.88,NW,304,3.1,3.1,40,0.00,,---,0.00,VWS V14.01,2013-04-24 02:35:00,
2013-04-23 20:40:00,36.1,14.2,29.88,NW,312,0.0,0.0,40,0.00,,---,0.00,VWS V14.01,2013-04-24 02:40:00,
2013-04-23 20:45:00,36.0,14.0,29.88,WNW,289,0.0,0.0,40,0.00,,---,0.00,VWS V14.01,2013-04-24 02:45:00,
2013-04-23 20:50:00,36.0,14.0,29.88,WNW,289,0.0,0.0,40,0.00,,---,0.00,VWS V14.01,2013-04-24 02:50:00,
2013-04-23 20:55:00,35.8,13.8,29.88,WNW,303,2.2,3.1,40,0.00,,---,0.00,VWS V14.01,2013-04-24 02:55:00,
2013-04-23 21:00:00,35.8,13.8,29.88,WSW,247,4.0,4.0,40,0.00,,---,0.00,VWS V14.01,2013-04-24 03:00:00,
2013-04-23 21:05:00,35.6,13.7,29.88,NW,306,0.0,0.0,40,0.00,,---,0.00,VWS V14.01,2013-04-24 03:05:00,
2013-04-23 21:10:00,35.6,13.7,29.88,NW,305,2.7,2.7,40,0.00,,---,0.00,VWS V14.01,2013-04-24 03:10:00,
2013-04-23 21:15:00,35.6,13.7,29.88,NW,307,2.7,3.6,40,0.00,,---,0.00,VWS V14.01,2013-04-24 03:15:00,
2013-04-23 21:20:00,35.4,14.1,29.88,WNW,293,3.6,6.3,41,0.00,,---,0.00,VWS V14.01,2013-04-24 03:20:00,
2013-04-23 21:25:00,35.4,14.1,29.88,WNW,300,3.1,4.0,41,0.00,,---,0.00,VWS V14.01,2013-04-24 03:25:00,
2013-04-23 21:30:00,35.4,14.1,29.88,West,273,0.0,0.0,41,0.00,,---,0.00,VWS V14.01,2013-04-24 03:30:00,
2013-04-23 21:36:00,35.2,14.5,29.88,West,265,0.0,0.0,42,0.00,,---,0.00,VWS V14.01,2013-04-24 03:36:00,
2013-04-23 21:41:00,35.1,14.3,29.88,WNW,302,0.0,0.0,42,0.00,,---,0.00,VWS V14.01,2013-04-24 03:41:00,
2013-04-23 21:46:00,34.9,14.1,29.88,WNW,302,0.0,0.0,42,0.00,,---,0.00,VWS V14.01,2013-04-24 03:46:00,
2013-04-23 21:51:00,34.3,13.6,29.88,WNW,302,0.0,0.0,42,0.00,,---,0.00,VWS V14.01,2013-04-24 03:51:00,
2013-04-23 21:56:00,34.0,13.3,29.88,WNW,302,0.0,0.0,42,0.00,,---,0.00,VWS V14.01,2013-04-24 03:56:00,
2013-04-23 22:01:00,34.0,14.4,29.88,WNW,302,0.0,0.0,44,0.00,,---,0.00,VWS V14.01,2013-04-24 04:01:00,
2013-04-23 22:06:00,33.8,14.2,29.88,WNW,302,0.0,0.0,44,0.00,,---,0.00,VWS V14.01,2013-04-24 04:06:00,
2013-04-23 22:11:00,33.4,13.9,29.88,WNW,302,0.0,0.0,44,0.00,,---,0.00,VWS V14.01,2013-04-24 04:11:00,
2013-04-23 22:16:00,33.3,13.7,29.88,WNW,302,0.0,0.0,44,0.00,,---,0.00,VWS V14.01,2013-04-24 04:16:00,
2013-04-23 22:21:00,33.1,15.1,29.91,WNW,302,0.0,0.0,47,0.00,,---,0.00,VWS V14.01,2013-04-24 04:21:00,
2013-04-23 22:26:00,32.9,14.4,29.91,WNW,302,0.0,0.0,46,0.00,,---,0.00,VWS V14.01,2013-04-24 04:26:00,
2013-04-23 22:31:00,32.9,14.4,29.91,WNW,302,0.0,0.0,46,0.00,,---,0.00,VWS V14.01,2013-04-24 04:31:00,
2013-04-23 22:36:00,32.9,14.9,29.91,WNW,302,0.0,0.0,47,0.00,,---,0.00,VWS V14.01,2013-04-24 04:36:00,
2013-04-23 22:41:00,32.7,15.2,29.91,WNW,302,0.0,0.0,48,0.00,,---,0.00,VWS V14.01,2013-04-24 04:41:00,
2013-04-23 22:46:00,32.5,14.6,29.91,WNW,302,0.0,0.0,47,0.00,,---,0.00,VWS V14.01,2013-04-24 04:46:00,
2013-04-23 22:51:00,32.4,14.4,29.91,WNW,302,0.0,0.0,47,0.00,,---,0.00,VWS V14.01,2013-04-24 04:51:00,
2013-04-23 22:56:00,32.5,14.6,29.91,WNW,302,0.0,0.0,47,0.00,,---,0.00,VWS V14.01,2013-04-24 04:56:00,
2013-04-23 23:01:00,32.5,14.6,29.91,WNW,302,0.0,0.0,47,0.00,,---,0.00,VWS V14.01,2013-04-24 05:01:00,
2013-04-23 23:06:00,32.4,14.4,29.91,WNW,302,0.0,0.0,47,0.00,,---,0.00,VWS V14.01,2013-04-24 05:06:00,
2013-04-23 23:11:00,32.0,14.1,29.91,WNW,302,0.0,0.0,47,0.00,,---,0.00,VWS V14.01,2013-04-24 05:11:00,
2013-04-23 23:16:00,31.8,13.9,29.91,WNW,302,0.0,0.0,47,0.00,,---,0.00,VWS V14.01,2013-04-24 05:16:00,
2013-04-23 23:21:00,31.6,14.7,29.88,NW,314,0.0,0.0,49,0.00,,---,0.00,VWS V14.01,2013-04-24 05:21:00,
2013-04-23 23:26:00,31.6,14.7,29.88,West,268,0.0,2.2,49,0.00,,---,0.00,VWS V14.01,2013-04-24 05:26:00,
2013-04-23 23:31:00,31.6,14.7,29.88,WNW,287,0.0,0.0,49,0.00,,---,0.00,VWS V14.01,2013-04-24 05:31:00,
2013-04-23 23:36:00,31.5,14.5,29.88,WNW,287,0.0,0.0,49,0.00,,---,0.00,VWS V14.01,2013-04-24 05:36:00,
2013-04-23 23:41:00,31.3,14.8,29.88,WNW,287,0.0,0.0,50,0.00,,---,0.00,VWS V14.01,2013-04-24 05:41:00,
2013-04-23 23:46:00,31.1,15.1,29.88,WNW,287,0.0,0.0,51,0.00,,---,0.00,VWS V14.01,2013-04-24 05:46:00,
2013-04-23 23:51:00,30.9,14.5,29.88,WNW,287,0.0,0.0,50,0.00,,---,0.00,VWS V14.01,2013-04-24 05:51:00,
2013-04-23 23:56:00,30.9,14.5,29.88,WNW,287,0.0,0.0,50,0.00,,---,0.00,VWS V14.01,2013-04-24 05:56:00,